Weather History for KMZZ - March, 2013

Change the Weather History Date:

Wednesday, March 27, 2013

  Actual Average (KMIE) Record (KMIE)
Temperature  
Mean Temperature 30 °F 44 °F  
Max Temperature 37 °F 54 °F 79 °F (2007)
Min Temperature 22 °F 34 °F 16 °F (1965)
Degree Days  
Heating Degree Days 36 21  
Month to date heating degree days 706  
Since 1 July heating degree days 5089  
Cooling Degree Days 0 0  
Month to date cooling degree days 0  
Year to date cooling degree days 0  
Moisture  
Dew Point 25 °F    
Average Humidity 77    
Maximum Humidity 87    
Minimum Humidity 65    
Precipitation  
Precipitation 0.00 in 0.11 in 0.57 in (2008)
Month to date precipitation 2.52  
Year to date precipitation 7.06  
Sea Level Pressure  
Sea Level Pressure 30.27 in    
Wind  
Wind Speed 10 mph (WNW)    
Max Wind Speed 14 mph    
Max Gust Speed -    
Visibility 10 miles    
Events      
T = Trace of Precipitation, MM = Missing Value Source: NWS Daily Summary

Daily Weather History Graph

Daily Weather History Graph

Search for Another Location

Airport or City:

Trip Planner

Search our weather history database for the weather conditions in past years. The results will help you decide how hot, cold, wet, or windy it might be!

Date:

Astronomy

Mar. 27, 2013 Rise Set
Actual Time 7:34 AM EDT 8:02 PM EDT
Civil Twilight 7:06 AM EDT 8:29 PM EDT
Nautical Twilight 6:34 AM EDT 9:02 PM EDT
Astronomical Twilight 6:01 AM EDT 9:35 PM EDT
Moon 8:45 PM EDT (3/27) 7:24 AM EDT (3/27)
Length of Visible Light 13h 22m
Length of Day
12h 28m
Full, 100% of the Moon is Illuminated
Mar 27
Full
Apr 3
Last Quarter
Apr 10
New
Apr 18
First Quarter
Apr 25
Full

Hourly Weather History & Observations

Time (EDT) Temp. Windchill Dew Point Humidity Pressure Visibility Wind Dir Wind Speed Gust Speed Precip Events Conditions
12:15 AM 31.5 °F 22.3 °F 26.2 °F 81% 30.22 in 10.0 mi West 11.5 mph - N/A   Overcast
12:35 AM 31.5 °F 21.4 °F 26.2 °F 81% 30.22 in 10.0 mi West 13.8 mph - N/A   Overcast
12:55 AM 31.5 °F 21.4 °F 26.1 °F 80% 30.22 in 10.0 mi West 13.8 mph - N/A   Overcast
1:15 AM 30.7 °F 21.4 °F 25.5 °F 81% 30.22 in 10.0 mi West 11.5 mph - N/A   Scattered Clouds
1:35 AM 29.8 °F 20.9 °F 25.0 °F 82% 30.22 in 10.0 mi WNW 10.4 mph - N/A   Clear
1:55 AM 29.3 °F 19.6 °F 24.4 °F 82% 30.23 in 10.0 mi West 11.5 mph - N/A   Clear
2:15 AM 28.8 °F 20.2 °F 24.3 °F 83% 30.23 in 10.0 mi WNW 9.2 mph - N/A   Scattered Clouds
2:35 AM 30.0 °F 20.5 °F 25.0 °F 82% 30.23 in 10.0 mi WNW 11.5 mph - N/A   Overcast
2:55 AM 29.8 °F 21.5 °F 24.8 °F 81% 30.23 in 10.0 mi WNW 9.2 mph - N/A   Mostly Cloudy
3:15 AM 28.8 °F 20.9 °F 24.1 °F 83% 30.23 in 10.0 mi West 8.1 mph - N/A   Clear
3:35 AM 27.1 °F 17.5 °F 23.2 °F 85% 30.22 in 10.0 mi West 10.4 mph - N/A   Clear
3:55 AM 26.6 °F 16.2 °F 22.5 °F 84% 30.22 in 10.0 mi West 11.5 mph - N/A   Clear
4:15 AM 26.1 °F 16.2 °F 21.9 °F 84% 30.22 in 10.0 mi West 10.4 mph - N/A   Clear
4:35 AM 25.5 °F 15.5 °F 21.6 °F 85% 30.23 in 10.0 mi West 10.4 mph - N/A   Clear
4:55 AM 25.3 °F 15.3 °F 21.4 °F 85% 30.23 in 10.0 mi West 10.4 mph - N/A   Clear
5:15 AM 24.8 °F 14.0 °F 21.0 °F 86% 30.24 in 10.0 mi West 11.5 mph - N/A   Clear
5:35 AM 24.8 °F 14.0 °F 21.0 °F 86% 30.24 in 10.0 mi West 11.5 mph - N/A   Clear
5:55 AM 24.6 °F 14.4 °F 21.0 °F 86% 30.24 in 10.0 mi West 10.4 mph - N/A   Clear
6:15 AM 24.6 °F 14.4 °F 20.8 °F 86% 30.24 in 10.0 mi West 10.4 mph - N/A   Clear
6:35 AM 24.1 °F 13.7 °F 20.5 °F 86% 30.24 in 10.0 mi West 10.4 mph - N/A   Clear
6:55 AM 25.0 °F 15.5 °F 21.2 °F 86% 30.24 in 10.0 mi WNW 9.2 mph - N/A   Clear
7:15 AM 24.4 °F 17.5 °F 20.5 °F 85% 30.25 in 10.0 mi WNW 5.8 mph - N/A   Clear
7:35 AM 23.5 °F 14.5 °F 20.1 °F 87% 30.25 in 10.0 mi West 8.1 mph - N/A   Clear
7:55 AM 22.8 °F 18.2 °F 19.4 °F 87% 30.25 in 10.0 mi West 3.5 mph - N/A   Clear
8:15 AM 22.6 °F 16.5 °F 19.4 °F 87% 30.26 in 10.0 mi West 4.6 mph - N/A   Clear
8:35 AM 23.2 °F 16.0 °F 19.9 °F 87% 30.27 in 10.0 mi WNW 5.8 mph - N/A   Clear
8:55 AM 24.6 °F 18.8 °F 20.8 °F 86% 30.27 in 10.0 mi West 4.6 mph - N/A   Clear
9:15 AM 26.1 °F 18.4 °F 21.9 °F 84% 30.28 in 10.0 mi West 6.9 mph - N/A   Clear
9:35 AM 27.9 °F 19.1 °F 23.2 °F 83% 30.28 in 10.0 mi West 9.2 mph - N/A   Clear
9:55 AM 28.9 °F 20.4 °F 24.1 °F 82% 30.29 in 10.0 mi West 9.2 mph - N/A   Clear
10:15 AM 30.0 °F 22.4 °F 24.8 °F 81% 30.29 in 10.0 mi WNW 8.1 mph - N/A   Clear
10:35 AM 31.1 °F 23.7 °F 24.6 °F 77% 30.29 in 10.0 mi WNW 8.1 mph - N/A   Clear
10:55 AM 31.8 °F 25.4 °F 25.0 °F 76% 30.30 in 10.0 mi NW 6.9 mph - N/A   Clear
11:15 AM 32.0 °F 25.6 °F 25.2 °F 76% 30.30 in 10.0 mi NW 6.9 mph - N/A   Clear
11:35 AM 32.4 °F 24.6 °F 25.5 °F 76% 30.30 in 10.0 mi West 9.2 mph - N/A   Clear
11:55 AM 32.9 °F 27.5 °F 25.5 °F 74% 30.30 in 10.0 mi West 5.8 mph - N/A   Clear
12:15 PM 33.1 °F 26.1 °F 25.9 °F 75% 30.30 in 10.0 mi West 8.1 mph - N/A   Clear
12:35 PM 33.6 °F 27.5 °F 25.9 °F 73% 30.30 in 10.0 mi West 6.9 mph - N/A   Clear
12:55 PM 34.2 °F 28.2 °F 26.4 °F 73% 30.30 in 10.0 mi West 6.9 mph - N/A   Clear
1:15 PM 34.7 °F 28.1 °F 26.4 °F 72% 30.30 in 10.0 mi West 8.1 mph - N/A   Clear
1:35 PM 35.1 °F 27.9 °F 27.0 °F 72% 30.30 in 10.0 mi West 9.2 mph - N/A   Clear
1:55 PM 35.4 °F 28.4 °F 27.3 °F 72% 30.30 in 7.0 mi West 9.2 mph - N/A   Clear
2:15 PM 35.6 °F 27.5 °F 27.5 °F 72% 30.30 in 10.0 mi West 11.5 mph - N/A   Clear
2:35 PM 36.1 °F 27.7 °F 27.1 °F 70% 30.30 in 10.0 mi West 12.7 mph - N/A   Clear
2:55 PM 36.5 °F 28.7 °F 27.7 °F 70% 30.30 in 10.0 mi West 11.5 mph - N/A   Clear
3:15 PM 36.7 °F 28.0 °F 27.5 °F 69% 30.29 in 10.0 mi West 13.8 mph - N/A   Clear
3:35 PM 37.0 °F 28.9 °F 27.5 °F 68% 30.29 in 10.0 mi West 12.7 mph - N/A   Clear
3:55 PM 37.6 °F 30.0 °F 27.5 °F 67% 30.28 in 10.0 mi West 11.5 mph - N/A   Scattered Clouds
4:15 PM 37.6 °F 30.0 °F 26.8 °F 65% 30.28 in 10.0 mi WNW 11.5 mph - N/A   Mostly Cloudy
4:35 PM 36.9 °F 29.1 °F 26.4 °F 66% 30.28 in 10.0 mi NW 11.5 mph - N/A   Overcast
4:55 PM 36.5 °F 29.7 °F 27.7 °F 70% 30.28 in 10.0 mi NW 9.2 mph - N/A   Overcast
5:15 PM 36.5 °F 28.7 °F 27.0 °F 68% 30.28 in 10.0 mi WNW 11.5 mph - N/A   Overcast
5:35 PM 36.3 °F 29.5 °F 26.2 °F 67% 30.28 in 10.0 mi WNW 9.2 mph - N/A   Scattered Clouds
5:55 PM 35.8 °F 28.8 °F 27.1 °F 71% 30.28 in 10.0 mi West 9.2 mph - N/A   Clear
6:15 PM 36.5 °F 29.2 °F 27.5 °F 70% 30.28 in 10.0 mi West 10.4 mph - N/A   Scattered Clouds
6:35 PM 36.3 °F 28.0 °F 26.8 °F 68% 30.28 in 10.0 mi West 12.7 mph - N/A   Overcast
6:55 PM 35.8 °F 28.3 °F 25.9 °F 67% 30.28 in 10.0 mi West 10.4 mph - N/A   Overcast
7:15 PM 35.4 °F 27.3 °F 26.1 °F 69% 30.28 in 10.0 mi West 11.5 mph - N/A   Overcast
7:35 PM 34.9 °F 26.6 °F 25.2 °F 68% 30.29 in 10.0 mi West 11.5 mph - N/A   Mostly Cloudy
7:55 PM 34.0 °F 26.6 °F 25.5 °F 71% 30.29 in 10.0 mi West 9.2 mph - N/A   Mostly Cloudy
8:15 PM 33.8 °F 27.0 °F 26.1 °F 73% 30.29 in 10.0 mi West 8.1 mph - N/A   Overcast
8:35 PM 33.6 °F 27.5 °F 26.4 °F 75% 30.29 in 10.0 mi West 6.9 mph - N/A   Overcast
8:55 PM 33.6 °F 26.8 °F 26.6 °F 75% 30.29 in 10.0 mi West 8.1 mph - N/A   Overcast
9:15 PM 33.8 °F 27.7 °F 26.4 °F 74% 30.29 in 10.0 mi West 6.9 mph - N/A   Overcast
9:35 PM 33.4 °F 25.9 °F 26.4 °F 75% 30.29 in 10.0 mi West 9.2 mph - N/A   Overcast
9:55 PM 32.9 °F 25.9 °F 26.4 °F 77% 30.30 in 10.0 mi West 8.1 mph - N/A   Overcast
10:15 PM 32.5 °F 26.2 °F 25.7 °F 76% 30.30 in 10.0 mi West 6.9 mph - N/A   Scattered Clouds
10:35 PM 32.0 °F 26.4 °F 25.3 °F 76% 30.30 in 10.0 mi WNW 5.8 mph - N/A   Scattered Clouds
10:55 PM 32.4 °F 26.9 °F 25.2 °F 75% 30.31 in 10.0 mi WNW 5.8 mph - N/A   Mostly Cloudy
11:15 PM 32.4 °F 27.9 °F 24.8 °F 74% 30.31 in 10.0 mi WNW 4.6 mph - N/A   Scattered Clouds
11:35 PM 31.8 °F 28.5 °F 24.6 °F 75% 30.31 in 10.0 mi NW 3.5 mph - N/A   Clear
11:55 PM 31.3 °F 26.6 °F 23.9 °F 74% 30.31 in 10.0 mi WNW 4.6 mph - N/A   Clear